HELLAS-SAT 4 & SGS-1

Last updated on Sat Apr 13 2024 01:02:39 GMT+0100 (British Summer Time)

1 44034U 19007A 24103.53729931 .00000144 00000+0 00000+0 0 9998 2 44034 0.0706 123.5114 0003848 16.9990 293.1687 1.00272256 19375
UTC large
Height (km)
Speed (km/s)
/
Latitude / Longitude
Inclination (degrees)
Orbital Period (minutes)
Azimuth
Elevation
Range (km)
Doppler Factor

Next 0 passes for location: London (51.5072 / 0.1276)

Sorry there are no passes over London.